Regional Weather Roundup
Issued by NWS

Home | Current Version | Previous Version | Text Only | Print | Product List | Glossary Off
Versions: 1 2 3 4 5 6 7 8 9 10 11 12 13 14 15 16 17 18 19 20 21 22 23 24 25 26 27 28 29 30 31 32 33 34 35 36 37 38 39 40 41 42 43 44 45 46 47 48 49 50

000
ASUS43 KDMX 311207
RWRIA

WEATHER ROUNDUP FOR IOWA
NATIONAL WEATHER SERVICE DES MOINES IA
600 AM CST SAT JAN 31 2015

NOTE: "FAIR" INDICATES FEW OR NO CLOUDS BELOW 12,000 FEET WITH NO
SIGNIFICANT WEATHER AND/OR OBSTRUCTIONS TO VISIBILITY.

* - THESE STATIONS ARE NOT NWS STATIONS...THUS NOT UNDER NWS
QUALITY CONTROL.  THEY ALSO DO NOT REPORT WEATHER SUCH
AS PRECIPITATION OR FOG.

IAZ001>003-012>014-020>022-031>034-043>046-311300-
   NORTHWEST IOWA

CITY           SKY/WX    TMP DP  RH WIND       PRES   REMARKS
CARROLL *      MOCLDY    32  30  93 SW14      30.15S WCI  22
CHEROKEE *     CLOUDY    29  28  95 S3        30.12F
DENISON *      CLOUDY    32  32 100 S7        30.14S WCI  26
LE MARS *      CLEAR     30  28  93 MISG      30.12F
ORANGE CITY *  MOCLDY    30  27  86 S5        30.10F WCI  25
SHELDON *      CLEAR     27  27 100 CALM      30.10S
SIOUX CITY     CLOUDY    30  27  88 E7        30.12F WCI  23
6HR MIN TEMP:  26; 6HR MAX TEMP:  30;

SPENCER        CLOUDY    26  22  84 N7        30.13R WCI  18
6HR MIN TEMP:  24; 6HR MAX TEMP:  30;

STORM LAKE *   PTCLDY    34  30  86 W9        30.13S WCI  26
$$

IAZ055>058-069>071-079>083-090>094-311300-
   SOUTHWEST IOWA

CITY           SKY/WX    TMP DP  RH WIND       PRES   REMARKS
ATLANTIC *     CLOUDY    34  28  80 SW6       30.19S WCI  29
AUDUBON *      CLOUDY    34  28  80 SW3       30.18S
CLARINDA *     MIX PCPN  36  32  87 S5        30.23S WCI  32
COUNCIL BLFS * CLOUDY    37  36  93 S10       30.16S WCI  30
CRESTON *      CLOUDY    32  28  86 SW7       30.20F WCI  26
HARLAN  *      CLOUDY    32  32 100 CALM      30.21S
LAMONI         CLOUDY    28  21  75 S8        30.22F WCI  20
6HR MIN TEMP:  27; 6HR MAX TEMP:  28;

RED OAK *      CLOUDY    34  30  86 S6        30.20F WCI  29
SHENANDOAH *   MIX PCPN  37  36  93 SW12      30.22S WCI  30
$$

IAZ047>049-059>061-072>074-084-311300-
   CENTRAL IOWA

CITY           SKY/WX    TMP DP  RH WIND       PRES   REMARKS
AMES           MOCLDY    30  24  78 SW13      30.17S WCI  20
6HR MIN TEMP:  24; 6HR MAX TEMP:  30;

ANKENY *       PTCLDY    32  27  80 SW8       30.19S WCI  25
CHARITON *     CLOUDY    32  25  74 SW10      30.22S WCI  24
DES MOINES     CLOUDY    35  27  72 SW13      30.20S WCI  26
6HR MIN TEMP:  27; 6HR MAX TEMP:  35;

GRINNELL*      MOCLDY    28  23  80 SW10      30.19S WCI  19
KNOXVILLE *    CLOUDY    32  25  74 SW10      30.20R WCI  24
MARSHALLTOWN   CLOUDY    30  23  75 SW10      30.16S WCI  21
6HR MIN TEMP:  26; 6HR MAX TEMP:  30;

PELLA *        MOCLDY    31  24  75 SW8       30.22S WCI  24
PERRY *          N/A     32  30  93 SW5       30.18R WCI  27
$$

IAZ004>006-015-016-023>025-035-036-311300-
   NORTH CENTRAL IOWA

CITY           SKY/WX    TMP DP  RH WIND       PRES   REMARKS
ALGONA *       CLEAR     25  25 100 CALM      30.14R
CLARION *      CLOUDY    25  25 100 S5        30.15R WCI  19
ESTHERVILLE    MOCLDY    24  22  91 NW6       30.12S WCI  17
6HR MIN TEMP:  24; 6HR MAX TEMP:  28;

FORT DODGE *   CLOUDY    30  27  86 SW3       30.15R
MASON CITY     MOCLDY    25  21  85 W9        30.14S WCI  15
6HR MIN TEMP:  21; 6HR MAX TEMP:  27;

FOREST CITY *  CLEAR     21  19  93 CALM      30.13S
IOWA FALLS *   MOCLDY    28  23  80 SW5       30.16S WCI  23
$$

IAZ007>011-017>019-026>030-037>042-050>054-066-311300-
   NORTHEAST IOWA

CITY           SKY/WX    TMP DP  RH WIND       PRES   REMARKS
CEDAR RAPIDS   MOCLDY    26  21  81 S8        30.18S WCI  18
6HR MIN TEMP:  21; 6HR MAX TEMP:  26;

CHARLES CITY * CLEAR     21  19  93 S6        30.15S WCI  14
CLINTON *      PTCLDY    21  16  79 SW8       30.24S WCI  12
DECORAH *      CLEAR     23  18  80 SW6       30.13S WCI  16
DUBUQUE        CLEAR     19  15  84 S8        30.17S WCI   9
6HR MIN TEMP:  19; 6HR MAX TEMP:  22;

MONTICELLO *   CLEAR     25  19  80 SW6       30.19S WCI  18
OELWEIN *      CLEAR     19  18  93 S7        30.17R WCI  10
WATERLOO       MOCLDY    25  20  81 W3        30.16S
6HR MIN TEMP:  21; 6HR MAX TEMP:  25;

$$

IAZ064-065-067-068-078-311300-
   EAST CENTRAL IOWA

CITY           SKY/WX    TMP DP  RH WIND       PRES   REMARKS
DAVENPORT      PTCLDY    27  18  69 SW10      30.22F WCI  17
6HR MIN TEMP:  24; 6HR MAX TEMP:  27;

IOWA CITY      MOCLDY    27  21  78 CALM      30.23S
6HR MIN TEMP:  21; 6HR MAX TEMP:  27;

MT. PLEASANT * MOCLDY    28  21  76 SW10      30.25S WCI  18
MUSCATINE *    CLOUDY    30  23  74 S7        30.25R WCI  23
QUAD CITIES    PTCLDY    27  19  72 W6        30.22F WCI  20
6HR MIN TEMP:  24; 6HR MAX TEMP:  27;

$$

IAZ062-063-075>077-085>089-095>099-311300-
   SOUTHEAST IOWA

CITY           SKY/WX    TMP DP  RH WIND       PRES   REMARKS
BURLINGTON     CLOUDY    28  22  78 SW9       30.25S WCI  19
6HR MIN TEMP:  25; 6HR MAX TEMP:  28;

FAIRFIELD *    PTCLDY    28  21  74 SW9       30.24S WCI  20
FORT MADISON * CLEAR     28  21  74 SW10      30.27S WCI  19
KEOKUK *       CLEAR     28  23  80 SW6       30.27R WCI  22
OSKALOOSA *      N/A     27  22  84 SW9       30.22F WCI  17
CENTERVILLE *    N/A     32  23  69 SW8       30.25S WCI  25
OTTUMWA        MOCLDY    28  21  75 SW10      30.22S WCI  19
6HR MIN TEMP:  25; 6HR MAX TEMP:  28;

WASHINGTON *   CLOUDY    30  25  80 SW12      30.23R WCI  21
$$

ABBREVIATIONS USED IN REMARKS
   TC - TEMPERATURES IN CELSIUS
  WCI - WIND CHILL INDEX
   HX - HEAT INDEX
  VSB - VISIBILITY
$$



USA.gov is the U.S. government's official web portal to all federal, state and local government web resources and services.